Time,TemperatureF,DewpointF,PressureIn,WindDirection,WindDirectionDegrees,WindSpeedMPH,WindSpeedGustMPH,Humidity,HourlyPrecipIn,Conditions,Clouds,dailyrainin,SolarRadiationWatts/m^2,SoftwareType,DateUTC
2013-09-25 00:07:00,56.6,48.0,29.90,West,270,0.0,1.0,74,0.00,,,0.00,0,weatherlink.com 1.10,2013-09-25 07:07:00,
2013-09-25 00:37:00,56.7,48.0,29.90,West,265,1.0,6.0,72,0.00,,,0.00,0,weatherlink.com 1.10,2013-09-25 07:37:00,
2013-09-25 00:52:00,56.8,48.0,29.90,West,271,3.0,7.0,72,0.00,,,0.00,0,weatherlink.com 1.10,2013-09-25 07:52:00,
2013-09-25 01:07:00,56.9,48.0,29.90,West,269,3.0,7.0,72,0.00,,,0.00,0,weatherlink.com 1.10,2013-09-25 08:07:00,
2013-09-25 01:22:00,56.5,48.0,29.91,West,268,1.0,4.0,72,0.00,,,0.00,0,weatherlink.com 1.10,2013-09-25 08:22:00,
2013-09-25 01:37:00,56.1,48.0,29.90,West,267,0.0,2.0,73,0.00,,,0.00,0,weatherlink.com 1.10,2013-09-25 08:37:00,
2013-09-25 01:52:00,55.6,48.0,29.91,West,267,0.0,1.0,75,0.00,,,0.00,0,weatherlink.com 1.10,2013-09-25 08:52:00,
2013-09-25 02:07:00,55.3,48.0,29.91,West,267,0.0,2.0,76,0.00,,,0.00,0,weatherlink.com 1.10,2013-09-25 09:07:00,
2013-09-25 02:22:00,55.6,48.0,29.90,West,265,1.0,2.0,75,0.00,,,0.00,0,weatherlink.com 1.10,2013-09-25 09:22:00,
2013-09-25 02:37:00,55.4,48.0,29.90,West,277,0.0,5.0,76,0.00,,,0.00,0,weatherlink.com 1.10,2013-09-25 09:37:00,
2013-09-25 02:52:00,55.5,48.0,29.90,West,275,1.0,3.0,76,0.00,,,0.00,0,weatherlink.com 1.10,2013-09-25 09:52:00,
2013-09-25 03:07:00,55.6,48.0,29.89,West,269,3.0,5.0,76,0.00,,,0.00,0,weatherlink.com 1.10,2013-09-25 10:07:00,
2013-09-25 03:22:00,55.7,48.0,29.89,West,275,3.0,5.0,76,0.00,,,0.00,0,weatherlink.com 1.10,2013-09-25 10:22:00,
2013-09-25 03:37:00,55.7,48.0,29.89,West,266,1.0,8.0,76,0.00,,,0.00,0,weatherlink.com 1.10,2013-09-25 10:37:00,
2013-09-25 03:52:00,55.7,48.0,29.90,West,271,4.0,5.0,76,0.00,,,0.00,0,weatherlink.com 1.10,2013-09-25 10:52:00,
2013-09-25 04:07:00,55.5,48.0,29.89,West,268,4.0,6.0,77,0.00,,,0.00,0,weatherlink.com 1.10,2013-09-25 11:07:00,
2013-09-25 04:22:00,55.4,48.0,29.89,West,275,5.0,9.0,77,0.00,,,0.00,0,weatherlink.com 1.10,2013-09-25 11:22:00,
2013-09-25 04:37:00,55.3,48.0,29.89,West,271,2.0,9.0,77,0.00,,,0.00,0,weatherlink.com 1.10,2013-09-25 11:37:00,
2013-09-25 04:52:00,55.0,48.0,29.89,WNW,284,3.0,3.0,78,0.00,,,0.00,0,weatherlink.com 1.10,2013-09-25 11:52:00,
2013-09-25 05:07:00,54.8,48.0,29.89,WNW,282,3.0,7.0,78,0.00,,,0.00,0,weatherlink.com 1.10,2013-09-25 12:07:00,
2013-09-25 05:22:00,54.8,48.0,29.88,West,274,5.0,8.0,78,0.00,,,0.00,0,weatherlink.com 1.10,2013-09-25 12:22:00,
2013-09-25 05:37:00,54.9,48.0,29.88,West,265,5.0,8.0,78,0.00,,,0.00,0,weatherlink.com 1.10,2013-09-25 12:37:00,
2013-09-25 05:52:00,54.9,48.0,29.89,WNW,285,0.0,7.0,78,0.00,,,0.00,0,weatherlink.com 1.10,2013-09-25 12:52:00,
2013-09-25 06:07:00,54.8,48.0,29.89,West,277,3.0,7.0,77,0.00,,,0.00,0,weatherlink.com 1.10,2013-09-25 13:07:00,
2013-09-25 06:22:00,54.9,48.0,29.89,West,275,2.0,6.0,77,0.00,,,0.00,0,weatherlink.com 1.10,2013-09-25 13:22:00,
2013-09-25 06:53:00,54.7,48.0,29.89,West,277,5.0,8.0,77,0.00,,,0.00,0,weatherlink.com 1.10,2013-09-25 13:53:00,
2013-09-25 07:08:00,54.7,48.0,29.90,West,261,5.0,8.0,77,0.00,,,0.00,0,weatherlink.com 1.10,2013-09-25 14:08:00,
2013-09-25 07:23:00,54.6,48.0,29.90,WNW,284,4.0,8.0,77,0.00,,,0.00,18,weatherlink.com 1.10,2013-09-25 14:23:00,
2013-09-25 07:38:00,54.7,48.0,29.91,West,276,3.0,7.0,77,0.00,,,0.00,26,weatherlink.com 1.10,2013-09-25 14:38:00,
2013-09-25 07:53:00,54.9,48.0,29.91,West,279,6.0,8.0,77,0.00,,,0.00,32,weatherlink.com 1.10,2013-09-25 14:53:00,
2013-09-25 08:08:00,55.3,48.0,29.91,WNW,289,3.0,8.0,76,0.00,,,0.00,39,weatherlink.com 1.10,2013-09-25 15:08:00,
2013-09-25 08:23:00,55.8,48.0,29.91,WNW,283,6.0,9.0,75,0.00,,,0.00,44,weatherlink.com 1.10,2013-09-25 15:23:00,
2013-09-25 08:38:00,56.4,47.0,29.91,West,271,4.0,9.0,72,0.00,,,0.00,47,weatherlink.com 1.10,2013-09-25 15:38:00,
2013-09-25 08:53:00,57.1,47.0,29.91,WNW,288,3.0,12.0,69,0.00,,,0.00,49,weatherlink.com 1.10,2013-09-25 15:53:00,
2013-09-25 09:08:00,57.6,47.0,29.91,WNW,285,3.0,11.0,69,0.00,,,0.00,410,weatherlink.com 1.10,2013-09-25 16:08:00,
2013-09-25 09:23:00,58.9,47.0,29.91,WNW,291,3.0,16.0,66,0.00,,,0.00,457,weatherlink.com 1.10,2013-09-25 16:23:00,
2013-09-25 09:38:00,59.6,48.0,29.92,West,267,5.0,10.0,65,0.00,,,0.00,503,weatherlink.com 1.10,2013-09-25 16:38:00,
2013-09-25 09:53:00,59.4,47.0,29.92,West,273,3.0,8.0,64,0.00,,,0.00,547,weatherlink.com 1.10,2013-09-25 16:53:00,
2013-09-25 10:08:00,60.1,47.0,29.91,West,265,4.0,8.0,62,0.00,,,0.00,587,weatherlink.com 1.10,2013-09-25 17:08:00,
2013-09-25 10:23:00,60.9,48.0,29.91,WNW,284,5.0,10.0,63,0.00,,,0.00,626,weatherlink.com 1.10,2013-09-25 17:23:00,
2013-09-25 10:38:00,60.7,47.0,29.91,WNW,293,3.0,8.0,60,0.00,,,0.00,654,weatherlink.com 1.10,2013-09-25 17:38:00,
2013-09-25 10:53:00,61.1,46.0,29.91,West,269,4.0,8.0,58,0.00,,,0.00,689,weatherlink.com 1.10,2013-09-25 17:53:00,
2013-09-25 11:08:00,61.8,46.0,29.91,West,276,9.0,9.0,57,0.00,,,0.00,714,weatherlink.com 1.10,2013-09-25 18:08:00,
2013-09-25 11:23:00,61.9,47.0,29.91,West,277,2.0,7.0,58,0.00,,,0.00,737,weatherlink.com 1.10,2013-09-25 18:23:00,
2013-09-25 11:38:00,62.5,46.0,29.91,West,260,2.0,9.0,55,0.00,,,0.00,759,weatherlink.com 1.10,2013-09-25 18:38:00,
2013-09-25 11:54:00,63.5,45.0,29.90,West,267,4.0,9.0,52,0.00,,,0.00,773,weatherlink.com 1.10,2013-09-25 18:54:00,
2013-09-25 12:09:00,63.1,45.0,29.90,WNW,285,4.0,9.0,52,0.00,,,0.00,780,weatherlink.com 1.10,2013-09-25 19:09:00,
2013-09-25 12:24:00,64.1,44.0,29.89,West,279,4.0,7.0,49,0.00,,,0.00,155,weatherlink.com 1.10,2013-09-25 19:24:00,
2013-09-25 12:39:00,64.1,44.0,29.89,West,275,3.0,12.0,49,0.00,,,0.00,246,weatherlink.com 1.10,2013-09-25 19:39:00,
2013-09-25 12:54:00,64.4,44.0,29.88,WNW,297,2.0,10.0,48,0.00,,,0.00,70,weatherlink.com 1.10,2013-09-25 19:54:00,
2013-09-25 13:09:00,65.3,44.0,29.89,West,268,6.0,11.0,47,0.00,,,0.00,70,weatherlink.com 1.10,2013-09-25 20:09:00,
2013-09-25 13:24:00,65.7,44.0,29.87,WNW,287,7.0,12.0,46,0.00,,,0.00,308,weatherlink.com 1.10,2013-09-25 20:24:00,
2013-09-25 13:39:00,65.1,44.0,29.87,West,278,5.0,9.0,47,0.00,,,0.00,178,weatherlink.com 1.10,2013-09-25 20:39:00,
2013-09-25 13:54:00,66.1,45.0,29.87,West,273,4.0,6.0,46,0.00,,,0.00,645,weatherlink.com 1.10,2013-09-25 20:54:00,
2013-09-25 14:09:00,66.1,46.0,29.86,West,281,0.0,9.0,48,0.00,,,0.00,253,weatherlink.com 1.10,2013-09-25 21:09:00,
2013-09-25 14:24:00,65.1,45.0,29.86,West,276,2.0,7.0,49,0.00,,,0.00,88,weatherlink.com 1.10,2013-09-25 21:24:00,
2013-09-25 14:39:00,66.1,48.0,29.86,West,265,0.0,5.0,52,0.00,,,0.00,123,weatherlink.com 1.10,2013-09-25 21:39:00,
2013-09-25 14:54:00,66.2,48.0,29.86,West,263,1.0,4.0,53,0.00,,,0.00,39,weatherlink.com 1.10,2013-09-25 21:54:00,
2013-09-25 15:09:00,66.5,48.0,29.85,WSW,250,0.0,4.0,52,0.00,,,0.00,47,weatherlink.com 1.10,2013-09-25 22:09:00,
2013-09-25 15:24:00,66.3,48.0,29.85,WNW,293,5.0,7.0,53,0.00,,,0.00,30,weatherlink.com 1.10,2013-09-25 22:24:00,
2013-09-25 15:39:00,66.2,46.0,29.84,West,262,3.0,7.0,48,0.00,,,0.00,26,weatherlink.com 1.10,2013-09-25 22:39:00,
2013-09-25 15:54:00,66.3,46.0,29.84,West,274,5.0,10.0,48,0.00,,,0.00,25,weatherlink.com 1.10,2013-09-25 22:54:00,
2013-09-25 16:09:00,66.3,46.0,29.83,WSW,245,3.0,6.0,48,0.00,,,0.00,23,weatherlink.com 1.10,2013-09-25 23:09:00,
2013-09-25 16:24:00,65.6,45.0,29.83,WNW,295,2.0,11.0,48,0.00,,,0.00,21,weatherlink.com 1.10,2013-09-25 23:24:00,
2013-09-25 16:39:00,65.6,46.0,29.83,WSW,253,1.0,6.0,49,0.00,,,0.00,21,weatherlink.com 1.10,2013-09-25 23:39:00,
2013-09-25 16:53:00,64.9,46.3,29.83,West,273,3.0,4.0,51,0.00,,,0.00,69,Wunderground v.1.15,2013-09-25 23:53:00,
2013-09-25 17:09:00,64.5,46.0,29.83,WNW,285,2.0,7.0,52,0.00,,,0.00,28,weatherlink.com 1.10,2013-09-26 00:09:00,
2013-09-25 17:24:00,63.1,46.0,29.83,West,265,6.0,8.0,54,0.00,,,0.00,19,weatherlink.com 1.10,2013-09-26 00:24:00,
2013-09-25 17:39:00,62.6,46.0,29.83,West,273,3.0,8.0,56,0.00,,,0.00,16,weatherlink.com 1.10,2013-09-26 00:39:00,
2013-09-25 17:54:00,61.8,47.0,29.82,West,268,1.0,8.0,58,0.00,,,0.00,12,weatherlink.com 1.10,2013-09-26 00:54:00,
2013-09-25 18:09:00,61.5,47.0,29.82,West,271,2.0,7.0,59,0.00,,,0.00,11,weatherlink.com 1.10,2013-09-26 01:09:00,
2013-09-25 18:24:00,61.0,47.0,29.82,West,270,2.0,5.0,60,0.00,,,0.00,9,weatherlink.com 1.10,2013-09-26 01:24:00,
2013-09-25 18:39:00,60.2,47.0,29.82,West,275,1.0,4.0,61,0.00,,,0.00,7,weatherlink.com 1.10,2013-09-26 01:39:00,
2013-09-25 18:54:00,59.3,47.0,29.81,West,271,0.0,3.0,63,0.00,,,0.00,0,weatherlink.com 1.10,2013-09-26 01:54:00,
2013-09-25 19:24:00,58.3,47.0,29.81,West,275,0.0,4.0,66,0.00,,,0.00,0,weatherlink.com 1.10,2013-09-26 02:24:00,
2013-09-25 19:39:00,57.9,47.0,29.81,West,265,2.0,5.0,67,0.00,,,0.00,0,weatherlink.com 1.10,2013-09-26 02:39:00,
2013-09-25 20:09:00,57.3,47.0,29.82,West,278,1.0,5.0,68,0.00,,,0.00,0,weatherlink.com 1.10,2013-09-26 03:09:00,
2013-09-25 20:24:00,56.9,47.0,29.82,West,277,0.0,5.0,69,0.00,,,0.00,0,weatherlink.com 1.10,2013-09-26 03:24:00,
2013-09-25 20:39:00,56.6,47.0,29.81,WNW,293,3.0,4.0,70,0.00,,,0.00,0,weatherlink.com 1.10,2013-09-26 03:39:00,
2013-09-25 20:54:00,56.7,47.0,29.81,WSW,248,2.0,8.0,70,0.00,,,0.00,0,weatherlink.com 1.10,2013-09-26 03:54:00,
2013-09-25 21:09:00,56.7,47.0,29.82,West,279,3.0,11.0,70,0.00,,,0.00,0,weatherlink.com 1.10,2013-09-26 04:09:00,
2013-09-25 21:24:00,56.7,47.0,29.83,West,277,2.0,4.0,70,0.00,,,0.00,0,weatherlink.com 1.10,2013-09-26 04:24:00,
2013-09-25 21:39:00,56.9,47.0,29.83,West,275,3.0,5.0,69,0.00,,,0.00,0,weatherlink.com 1.10,2013-09-26 04:39:00,
2013-09-25 21:54:00,56.6,47.0,29.83,West,271,2.0,3.0,70,0.00,,,0.00,0,weatherlink.com 1.10,2013-09-26 04:54:00,
2013-09-25 22:09:00,56.3,47.0,29.83,West,275,2.0,3.0,70,0.00,,,0.00,0,weatherlink.com 1.10,2013-09-26 05:09:00,
2013-09-25 22:24:00,56.3,47.0,29.84,West,277,2.0,5.0,71,0.00,,,0.00,0,weatherlink.com 1.10,2013-09-26 05:24:00,
2013-09-25 22:39:00,56.3,47.0,29.83,West,281,2.0,6.0,71,0.00,,,0.00,0,weatherlink.com 1.10,2013-09-26 05:39:00,
2013-09-25 22:54:00,56.3,47.0,29.83,West,279,3.0,6.0,71,0.00,,,0.00,0,weatherlink.com 1.10,2013-09-26 05:54:00,
2013-09-25 23:09:00,56.1,47.0,29.83,WNW,286,3.0,7.0,71,0.00,,,0.00,0,weatherlink.com 1.10,2013-09-26 06:09:00,
2013-09-25 23:39:00,55.8,47.0,29.83,West,265,3.0,7.0,71,0.00,,,0.00,0,weatherlink.com 1.10,2013-09-26 06:39:00,
2013-09-25 23:54:00,55.5,47.0,29.83,West,276,4.0,5.0,72,0.00,,,0.00,0,weatherlink.com 1.10,2013-09-26 06:54:00,